Location: Caltech
(34.1382°N, 118.1253°W)
Time: 12:21:56
(UTC-07:00)

Cosmos 1125 Rocket - Visible Passes

Search period start: 22 May 2017 00:00
Search period end: 01 June 2017 00:00
Orbit: 757 x 781 km, 74.0° (Epoch: 21 May)

Date Brightness Start Highest point End Pass type
(mag) Time Alt. Az. Time Alt. Az. Time Alt. Az.
23 May 6.0 21:02:07 10° NW 21:05:44 19° W 21:09:20 10° SW visible
24 May 5.2 20:24:31 10° NW 20:29:14 34° W 20:33:54 10° SSW visible
27 May 6.1 20:17:15 10° NW 20:20:52 19° W 20:24:26 10° SW visible
